Regional Weather Roundup
Issued by NWS

Home | Current Version | Previous Version | Text Only | Print | Product List | Glossary Off
Versions: 1 2 3 4 5 6 7 8 9 10 11 12 13 14 15 16 17 18 19 20 21 22 23 24 25 26 27 28 29 30 31 32 33 34 35 36 37 38 39 40 41 42 43 44 45 46 47 48 49 50

000
ASUS45 KPSR 250300
RWRAZ

PRELIMINARY ARIZONA REGIONAL HOURLY WEATHER ROUNDUP
NATIONAL WEATHER SERVICE PHOENIX AZ
800 PM MST FRI OCT 24 2014

NOTE: FAIR INDICATES FEW OR NO CLOUDS BELOW 12,000 FEET WITH NO
SIGNIFICANT WEATHER AND/OR OBSTRUCTIONS TO VISIBILITY.

AZZ001>003-036-250400-
NORTHWEST ARIZONA

CITY           SKY/WX    TMP DP  RH WIND       PRES   REMARKS
KINGMAN        CLEAR     61  36  39 S8        30.11S
$$

AZZ004>008-015-016-018-250400-
NORTH CENTRAL ARIZONA

CITY           SKY/WX    TMP DP  RH WIND       PRES   REMARKS
GRAND CANYON   CLEAR     43  22  43 CALM      30.33S
PRESCOTT       CLEAR     62  39  42 SW6       30.24R
FLAGSTAFF      CLEAR     47  29  49 CALM      30.37R
PAYSON         CLEAR     64  43  45 CALM      30.27R
PAGE           CLEAR     67  35  30 SW5       30.17R
$$

AZZ009>014-017-250400-
NORTHEAST ARIZONA

CITY           SKY/WX    TMP DP  RH WIND       PRES   REMARKS
WINSLOW        NOT AVBL
SAINT JOHNS    CLEAR     58  39  49 SW5       30.26S
WINDOW ROCK    CLEAR     54  28  36 CALM      30.35S
$$

AZZ023-250400-
GREATER PHOENIX AREA

CITY           SKY/WX    TMP DP  RH WIND       PRES   REMARKS
PHOENIX        CLEAR     85  49  28 CALM      29.95R
GLENDALE       CLEAR     81  54  39 CALM      29.97R
DEER VALLEY    CLEAR     76  48  37 CALM      29.98R
SCOTTSDALE     CLEAR     82  48  30 CALM      29.99S
MESA-FALCON    CLEAR     82  46  28 N5        29.97R
MESA-GATEWAY   CLEAR     82  50  32 CALM      30.00R
CHANDLER       CLEAR     79  52  38 CALM      29.97R
$$

AZZ027-028-250400-
SOUTHWEST MARICOPA COUNTY AND PINAL COUNTY

CITY           SKY/WX    TMP DP  RH WIND       PRES   REMARKS
CASA GRANDE    CLEAR     79  46  31 CALM      29.99S
$$

AZZ503-504-507>509-250400-
SOUTHEAST ARIZONA

CITY           SKY/WX    TMP DP  RH WIND       PRES   REMARKS
TUCSON         CLEAR     79  47  32 W3        30.08R
RYAN FIELD       N/A     79  50  36 SW6       30.08R
NOGALES        CLEAR     67  47  48 E8        30.17R
SIERRA VISTA   CLEAR     68  45  42 W12       30.22R
SAFFORD        CLEAR     69  48  47 E6        30.10R
$$

AZZ020-021-025-026-031-250400-
SOUTHWEST ARIZONA

CITY           SKY/WX    TMP DP  RH WIND       PRES   REMARKS
YUMA           CLEAR     84  44  24 S3        29.89R
$$

CAZ031-033-041-043-047-048-061-250400-
SOUTHERN CALIFORNIA

CITY           SKY/WX    TMP DP  RH WIND       PRES   REMARKS
DOWNTOWN L.A.  CLEAR     72  54  53 CALM      29.95R
L.A. AIRPORT   CLEAR     69  67  93 W7        29.95R
SAN DIEGO      CLEAR     76  57  51 CALM      29.96R
BURBANK        CLEAR     78  44  29 SW3       29.96R
ONTARIO        CLEAR     78  26  14 W8        29.97R
RIVERSIDE      CLEAR     78  27  15 CALM      29.98R
PALM SPRINGS   CLEAR     84  47  27 CALM      29.94R
EL CENTRO NAS  CLEAR     83  45  26 CALM      29.88R
IMPERIAL       CLEAR     79  52  38 CALM      29.87R
BLYTHE         CLEAR     84  48  28 SE6       29.90R
$$

NVZ020-UTZ003-250400-
SOUTHERN NEVADA-UTAH

CITY           SKY/WX    TMP DP  RH WIND       PRES   REMARKS
LAS VEGAS      NOT AVBL
SALT LAKE CITY CLEAR     56  39  53 S5        30.08S
$$

NMZ009-TXZ055-250400-
NEW MEXICO-WEST TEXAS

CITY           SKY/WX    TMP DP  RH WIND       PRES   REMARKS
ALBUQUERQUE    CLEAR     65  34  31 CALM      30.26R
EL PASO        CLEAR     73  46  38 CALM      30.19R
$$


........................KEY........................
SKY/WX - SKY CONDITION/WEATHER
TMP    - TEMPERATURE IN FAHRENHEIT
DP     - DEW POINT IN FAHRENHEIT
RH     - RELATIVE HUMIDITY IN PERCENT
WIND   - DIRECTION AND SPEED IN MILES PER HOUR (MPH)
VRB    - VARIABLE WIND DIRECTION
PRES   - MEAN SEA LEVEL PRESSURE IN INCHES OF MERCURY
         F - FALLING PRESSURE   R - RISING PRESSURE
         S - STEADY PRESSURE
VSB    - VISIBILITY IN MILES
HX     - HEAT INDEX IN FAHRENHEIT
WCI    - WIND CHILL INDEX IN FAHRENHEIT
TC     - TEMPERATURE IN CELSIUS WHICH IS ALSO KNOWN AS
         TEMPERATURE IN CENTIGRADE
AFB    - AIR FORCE BASE
         LUKE AFB IS LUKE AIR FORCE BASE
         DAVIS-MONTHAN IS DAVIS-MONTHAN AIR FORCE BASE
NAS    - NAVAL AIR STATION
         EL CENTRO NAS IS EL CENTRO NAVAL AIR STATION
N/A    - NOT AVAILABLE



USA.gov is the U.S. government's official web portal to all federal, state and local government web resources and services.